Location: Auttagershofen
(48.1940°N, 10.0237°E)
Time: 21:51:59
(UTC+00:00)

Lacrosse 5 rocket - Pass Details

Date: 13 April 2026
Orbit: 390 x 471 km, 57.0° (Epoch: 19 May)

Event Time Altitude Azimuth Distance (km) Brightness Sun altitude
Rises 21:47:50 0° 290° (WNW) 2,288 5.1 -29.0°
Reaches altitude 10° 21:50:23 10° 312° (NW) 1,430 4.2 -29.2°
Enters shadow 21:51:16 14° 326° (NNW) 1,222 3.9 -29.2°
